OBJECT AH (43789 NORAD) Tracking and Keplerian Element Data

This shows tracking and keplerian element data for the satellite.

Feedback or suggestion? Click here.




ElementValue
Catalog43789
NameOBJECT AH
Epoch Orbit1365
Epoch Day66.16071637
Epoch Year2019
RAAN139.4045
Inclination97.755
Eccentricity0.0014687
Argument of Perigee316.1154
Mean Anonmoly43.8899
Mean Motion14.95462363
Decay Rate4.32E-06
L11 43789U 18099AH 19066.16071637 .00000432 00000-0 44292-4 0 9995
L22 43789 97.7550 139.4045 0014687 316.1154 43.8899 14.95462363 13658

Live tracking and technical data element details for OBJECT AH (NORAD 43789). OBJECT AH can be tracked NOW for your location showing map with azimuth and elevation plus other details from your city location.

Track the satellite on the map from your city or location and see movement details for azimuth, elevation, latitude, longitude, range, height, and movement on the map or in text.







IsCatalogInMostPopularTable: catalog: 43789, numindb: 73
Update: records affected: 1



GetName: 43789 OBJECT AH

Hit Count: updated at: Mon, 22 Jul 2019 16:05:12 GMT